| time (UTC) | temp F | wind direction | speed MPH | gust MPH | rain 1hr in | rain 24hr in | rain mn in | humidity % | barometer mb |
| 20260831024601 | 74 | 80 | 8.0 | 16.0 | 0.00 | 0.00 | 0.00 | 69 | 1019.0 |
| 20260831023053 | 75 | 80 | 9.0 | 15.0 | 0.00 | 0.00 | 0.00 | 69 | 1019.2 |
| 20260831021601 | 75 | 80 | 10.0 | 17.0 | 0.00 | 0.00 | 0.00 | 69 | 1019.1 |
| 20260831014558 | 76 | 78 | 8.0 | 21.0 | 0.00 | 0.00 | 0.00 | 69 | 1019.1 |
| 20260831013050 | 76 | 80 | 9.0 | 16.0 | 0.00 | 0.00 | 0.00 | 69 | 1019.2 |
| 20260831011604 | 76 | 80 | 8.0 | 16.0 | 0.00 | 0.00 | 0.00 | 69 | 1019.2 |
| 20260831010107 | 76 | 79 | 10.0 | 17.0 | 0.00 | 0.00 | 0.00 | 69 | 1019.2 |
| 20260831004600 | 77 | 79 | 8.0 | 16.0 | 0.00 | 0.00 | 0.00 | 69 | 1019.2 |
| 20260831003051 | 77 | 78 | 7.0 | 15.0 | 0.00 | 0.00 | 0.00 | 69 | 1019.2 |
| 20260831001620 | 78 | 77 | 9.0 | 16.0 | 0.00 | 0.00 | 0.00 | 69 | 1019.2 |
| 20260831000059 | 78 | 77 | 10.0 | 16.0 | 0.00 | 0.00 | 0.00 | 69 | 1019.0 |
| 20260830234608 | 78 | 77 | 10.0 | 16.0 | 0.00 | 0.00 | 0.00 | 70 | 1019.1 |
| 20260830233118 | 79 | 75 | 9.0 | 20.0 | 0.00 | 0.00 | 0.00 | 70 | 1019.0 |
| 20260830231600 | 79 | 74 | 8.0 | 18.0 | 0.00 | 0.00 | 0.00 | 70 | 1019.0 |
| 20260830230109 | 79 | 72 | 9.0 | 19.0 | 0.00 | 0.00 | 0.00 | 70 | 1018.8 |
| 20260830224606 | 79 | 72 | 11.0 | 18.0 | 0.00 | 0.00 | 0.00 | 70 | 1018.8 |
| 20260830223100 | 80 | 72 | 10.0 | 21.0 | 0.00 | 0.00 | 0.00 | 70 | 1018.6 |
| 20260830221556 | 80 | 72 | 10.0 | 17.0 | 0.00 | 0.00 | 0.00 | 70 | 1018.8 |
| 20260830220107 | 81 | 72 | 12.0 | 20.0 | 0.00 | 0.00 | 0.00 | 70 | 1018.8 |
| 20260830214600 | 81 | 72 | 11.0 | 18.0 | 0.00 | 0.00 | 0.00 | 70 | 1018.7 |
| 20260830213051 | 82 | 72 | 9.0 | 17.0 | 0.00 | 0.00 | 0.00 | 70 | 1018.7 |
| 20260830211559 | 82 | 153 | 6.0 | 13.0 | 0.00 | 0.00 | 0.00 | 70 | 1018.5 |
| 20260830210105 | 82 | 165 | 5.0 | 10.0 | 0.00 | 0.00 | 0.00 | 70 | 1018.5 |
| 20260830204559 | 83 | 168 | 5.0 | 9.0 | 0.00 | 0.00 | 0.00 | 71 | 1018.3 |
| 20260830203051 | 85 | 169 | 5.0 | 14.0 | 0.00 | 0.00 | 0.00 | 71 | 1018.2 |
| 20260830201549 | 85 | 168 | 4.0 | 7.0 | 0.00 | 0.00 | 0.00 | 71 | 1018.0 |
| 20260830200057 | 84 | 168 | 3.0 | 5.0 | 0.00 | 0.00 | 0.00 | 71 | 1017.8 |
| 20260830194601 | 82 | 168 | 1.0 | 3.0 | 0.00 | 0.00 | 0.00 | 70 | 1017.5 |
| 20260830193050 | 82 | 168 | 1.0 | 4.0 | 0.00 | 0.00 | 0.00 | 71 | 1017.4 |
| 20260830191607 | 83 | 168 | 2.0 | 4.0 | 0.00 | 0.00 | 0.00 | 71 | 1017.5 |
| 20260830190100 | 84 | 168 | 3.0 | 6.0 | 0.00 | 0.00 | 0.00 | 71 | 1017.4 |
| 20260830184551 | 85 | 168 | 2.0 | 5.0 | 0.00 | 0.00 | 0.00 | 71 | 1017.3 |
| 20260830183106 | 86 | 168 | 3.0 | 10.0 | 0.00 | 0.00 | 0.00 | 71 | 1017.4 |
| 20260830181559 | 86 | 168 | 5.0 | 11.0 | 0.00 | 0.00 | 0.00 | 71 | 1017.3 |
| 20260830180058 | 87 | 168 | 3.0 | 11.0 | 0.00 | 0.00 | 0.00 | 72 | 1017.4 |
| 20260830174615 | 86 | 168 | 7.0 | 14.0 | 0.00 | 0.00 | 0.00 | 72 | 1017.5 |
| 20260830173056 | 87 | 168 | 6.0 | 11.0 | 0.00 | 0.00 | 0.00 | 72 | 1017.5 |
| 20260830171607 | 87 | 168 | 5.0 | 14.0 | 0.00 | 0.00 | 0.00 | 72 | 1017.6 |
| 20260830170100 | 87 | 167 | 6.0 | 13.0 | 0.00 | 0.00 | 0.00 | 72 | 1017.6 |
| 20260830164554 | 87 | 167 | 6.0 | 13.0 | 0.00 | 0.00 | 0.00 | 72 | 1017.6 |
| 20260830163105 | 87 | 167 | 7.0 | 13.0 | 0.00 | 0.00 | 0.00 | 72 | 1017.7 |
| 20260830161558 | 87 | 167 | 6.0 | 14.0 | 0.00 | 0.00 | 0.00 | 72 | 1017.7 |
| 20260830160105 | 87 | 167 | 8.0 | 14.0 | 0.00 | 0.00 | 0.00 | 72 | 1017.7 |
| 20260830154548 | 85 | 168 | 9.0 | 14.0 | 0.00 | 0.00 | 0.00 | 72 | 1017.9 |
| 20260830153100 | 84 | 168 | 6.0 | 14.0 | 0.00 | 0.00 | 0.00 | 72 | 1018.0 |
| 20260830151557 | 84 | 168 | 8.0 | 16.0 | 0.00 | 0.00 | 0.00 | 72 | 1018.2 |
| 20260830150100 | 84 | 165 | 9.0 | 15.0 | 0.00 | 0.00 | 0.00 | 72 | 1018.2 |
| 20260830144602 | 85 | 162 | 6.0 | 14.0 | 0.00 | 0.00 | 0.00 | 72 | 1018.3 |
| 20260830143101 | 86 | 162 | 8.0 | 14.0 | 0.00 | 0.00 | 0.00 | 72 | 1018.4 |
| 20260830141559 | 85 | 158 | 9.0 | 13.0 | 0.00 | 0.00 | 0.00 | 72 | 1018.6 |
| 20260830140058 | 84 | 160 | 5.0 | 13.0 | 0.00 | 0.00 | 0.00 | 72 | 1018.8 |
| 20260830134601 | 82 | 157 | 9.0 | 14.0 | 0.00 | 0.00 | 0.00 | 72 | 1018.8 |
| 20260830133059 | 82 | 150 | 7.0 | 13.0 | 0.00 | 0.00 | 0.00 | 72 | 1019.1 |
| 20260830131558 | 81 | 148 | 9.0 | 14.0 | 0.00 | 0.00 | 0.00 | 72 | 1019.1 |
| 20260830130106 | 82 | 113 | 8.0 | 14.0 | 0.00 | 0.00 | 0.00 | 72 | 1019.2 |
| 20260830124552 | 82 | 103 | 8.0 | 12.0 | 0.00 | 0.00 | 0.00 | 72 | 1019.4 |
| 20260830123059 | 82 | 102 | 8.0 | 13.0 | 0.00 | 0.00 | 0.00 | 72 | 1019.5 |
| 20260830121605 | 81 | 101 | 7.0 | 13.0 | 0.00 | 0.00 | 0.00 | 72 | 1019.6 |
| 20260830120055 | 83 | 97 | 7.0 | 12.0 | 0.00 | 0.00 | 0.00 | 72 | 1019.6 |
| 20260830114555 | 83 | 96 | 6.0 | 10.0 | 0.00 | 0.00 | 0.00 | 72 | 1019.6 |
| 20260830113051 | 82 | 96 | 5.0 | 11.0 | 0.00 | 0.00 | 0.00 | 72 | 1019.8 |
| 20260830111600 | 82 | 96 | 9.0 | 13.0 | 0.00 | 0.00 | 0.00 | 72 | 1019.8 |
| 20260830110057 | 83 | 93 | 4.0 | 9.0 | 0.00 | 0.00 | 0.00 | 72 | 1019.8 |
| 20260830104551 | 82 | 93 | 4.0 | 8.0 | 0.00 | 0.00 | 0.00 | 72 | 1019.9 |
| 20260830103051 | 85 | 94 | 5.0 | 12.0 | 0.00 | 0.00 | 0.00 | 72 | 1019.8 |
| 20260830101600 | 84 | 94 | 7.0 | 14.0 | 0.00 | 0.00 | 0.00 | 72 | 1019.8 |
| 20260830100057 | 83 | 93 | 10.0 | 17.0 | 0.00 | 0.00 | 0.00 | 72 | 1019.5 |
| 20260830094550 | 83 | 92 | 7.0 | 14.0 | 0.00 | 0.00 | 0.00 | 72 | 1019.6 |
| 20260830093101 | 82 | 91 | 9.0 | 17.0 | 0.00 | 0.00 | 0.00 | 72 | 1019.4 |
| 20260830091557 | 81 | 91 | 8.0 | 17.0 | 0.00 | 0.00 | 0.00 | 72 | 1019.3 |
| 20260830090103 | 80 | 91 | 12.0 | 17.0 | 0.00 | 0.00 | 0.00 | 72 | 1019.3 |
| 20260830084556 | 79 | 91 | 11.0 | 17.0 | 0.00 | 0.00 | 0.00 | 72 | 1019.1 |
| 20260830083055 | 79 | 89 | 7.0 | 13.0 | 0.00 | 0.00 | 0.00 | 71 | 1019.0 |
| 20260830081600 | 78 | 89 | 7.0 | 14.0 | 0.00 | 0.00 | 0.00 | 71 | 1019.1 |
| 20260830080101 | 77 | 89 | 6.0 | 13.0 | 0.00 | 0.00 | 0.00 | 71 | 1019.1 |
| 20260830074601 | 76 | 91 | 7.0 | 14.0 | 0.00 | 0.00 | 0.00 | 71 | 1019.0 |
| 20260830073051 | 76 | 91 | 5.0 | 14.0 | 0.00 | 0.00 | 0.00 | 71 | 1018.9 |
| 20260830071559 | 74 | 91 | 6.0 | 13.0 | 0.00 | 0.00 | 0.00 | 71 | 1018.7 |
| 20260830070100 | 73 | 90 | 6.0 | 13.0 | 0.00 | 0.00 | 0.00 | 71 | 1018.7 |
| 20260830064558 | 72 | 91 | 6.0 | 11.0 | 0.00 | 0.00 | 0.00 | 70 | 1018.9 |
| 20260830063111 | 71 | 91 | 7.0 | 13.0 | 0.00 | 0.00 | 0.00 | 70 | 1018.7 |
| 20260830061601 | 71 | 91 | 7.0 | 12.0 | 0.00 | 0.00 | 0.00 | 70 | 1018.7 |
| 20260830060052 | 71 | 91 | 6.0 | 11.0 | 0.00 | 0.00 | 0.00 | 70 | 1018.5 |
| 20260830054603 | 71 | 90 | 6.0 | 11.0 | 0.00 | 0.00 | 0.00 | 70 | 1018.4 |
| 20260830053057 | 71 | 91 | 7.0 | 13.0 | 0.00 | 0.00 | 0.00 | 70 | 1018.4 |
| 20260830051550 | 72 | 90 | 7.0 | 13.0 | 0.00 | 0.00 | 0.00 | 70 | 1018.4 |
| 20260830050058 | 72 | 90 | 5.0 | 11.0 | 0.00 | 0.00 | 0.00 | 70 | 1018.3 |
| 20260830044603 | 72 | 90 | 6.0 | 13.0 | 0.00 | 0.00 | 0.00 | 70 | 1018.3 |
| 20260830043103 | 73 | 91 | 6.0 | 12.0 | 0.00 | 0.00 | 0.00 | 70 | 1018.3 |
| 20260830041652 | 73 | 90 | 6.0 | 16.0 | 0.00 | 0.00 | 0.00 | 70 | 1018.2 |
| 20260830040055 | 73 | 89 | 8.0 | 18.0 | 0.00 | 0.00 | 0.00 | 70 | 1018.3 |
| 20260830034622 | 74 | 89 | 10.0 | 16.0 | 0.00 | 0.00 | 0.00 | 71 | 1018.2 |
| 20260830033059 | 74 | 87 | 12.0 | 21.0 | 0.00 | 0.00 | 0.00 | 71 | 1018.3 |
| 20260830031557 | 74 | 86 | 10.0 | 16.0 | 0.00 | 0.00 | 0.00 | 71 | 1018.4 |
| 20260830030055 | 75 | 84 | 10.0 | 17.0 | 0.00 | 0.00 | 0.00 | 71 | 1018.4 |